Hourly Data Report for January 17, 2022

TERRACE A
BRITISH COLUMBIA
Current Station Operator: NAVCAN

54°28'07.000" N
128°34'42.000" W
217.30 m
1068134
71951
YXT

Download Data

Hourly Data (January 2022)
Hourly Data Report for January 17, 2022
TIME
LST
Temp Definition
°C
Dew Point Definition
°C
Rel Hum Definition
%
Precip. Amount Definition
mm

Wind Dir Definition
10's deg

Wind Spd Definition
km/h
Visibility Definition
km
Stn Press Definition
kPa
Hmdx Definition


Wind Chill Definition


Weather Definition


00:00 3.0 3.0 100 LegendMM 20 13 4.8 98.09     Rain, Fog
01:00 3.0 2.9 99 LegendMM 16 27 4.8 98.07     Rain, Fog
02:00 3.3 3.2 99 LegendMM 17 22 4.8 98.08     Rain, Fog
03:00 3.1 3.0 99 LegendMM 18 23 4.8 98.05     Rain, Fog
04:00 3.2 3.2 100 LegendMM 18 27 8.1 98.02     Rain
05:00 3.0 3.0 100 LegendMM 18 10 6.4 98.04     Rain, Fog
06:00 3.4 3.4 100 LegendMM 17 24 4.0 98.05     Rain, Fog
07:00 3.8 3.0 94 LegendMM 19 8 16.1 98.07     Mostly Cloudy
08:00 3.9 0.9 81 LegendMM 21 19 24.1 98.10     LegendNANA
09:00 0.8 0.5 98 LegendMM 36 8 24.1 98.21     LegendNANA
10:00 1.8 1.0 94 LegendMM 36 7 24.1 98.32     Mainly Clear
11:00 1.0 0.8 99 LegendMM 33 9 24.1 98.45     LegendNANA
12:00 1.4 -0.3 89 LegendMM 34 7 32.2 98.57     LegendNANA
13:00 2.7 -0.6 79 LegendMM 30 6 24.1 98.61     Mostly Cloudy
14:00 3.2 -0.2 78 LegendMM 31 4 32.2 98.67     LegendNANA
15:00 2.7 -1.2 75 LegendMM 36 8 32.2 98.73     LegendNANA
16:00 2.1 -0.9 80 LegendMM 36 10 32.2 98.76     Mostly Cloudy
17:00 1.4 -1.2 82 LegendMM 1 16 32.2 98.84     LegendNANA
18:00 0.9 -1.1 87 LegendMM 1 16 32.2 98.88     LegendNANA
19:00 0.6 -1.0 89 LegendMM 2 18 24.1 98.98     Mainly Clear
20:00 0.7 -1.2 87 LegendMM 36 23 32.2 99.00     LegendNANA
21:00 0.6 -2.0 83 LegendMM 1 25 32.2 99.05     LegendNANA
22:00 0.4 -1.5 87 LegendMM 36 30 32.2 99.09     Clear
23:00 0.0 -1.9 87 LegendMM 36 28 32.2 99.15   -6 LegendNANA

Notes on Data Quality.

Legend

  • E = Estimated
  • M = Missing
  • NA = Not Available*
  • [empty] = Indicates an unobserved value
Date modified: